Cortland, IL

4:04 PM CDT on September 25, 2016 (GMT -0500)
De Kalb Taylor Municipal

Weather History for KDKB - February, 2012

Change the Weather History Date:

Thursday, February 9, 2012

  Actual Average (KARR) Record (KARR)
Temperature  
Mean Temperature 27 °F 23 °F  
Max Temperature 34 °F 32 °F 53 °F (1999)
Min Temperature 20 °F 14 °F -15 °F (2011)
Degree Days  
Heating Degree Days 38 42  
Month to date heating degree days 387  
Since 1 July heating degree days 4404  
Cooling Degree Days 0 0  
Month to date cooling degree days 0  
Year to date cooling degree days 0  
Moisture  
Dew Point 17 °F    
Average Humidity 66    
Maximum Humidity 86    
Minimum Humidity 41    
Precipitation  
Precipitation 0.00 in 0.05 in 0.44 in (2001)
Month to date precipitation 0.39  
Year to date precipitation 1.86  
Sea Level Pressure  
Sea Level Pressure 30.21 in    
Wind  
Wind Speed 10 mph (WSW)    
Max Wind Speed 20 mph    
Max Gust Speed 23 mph    
Visibility 9 miles    
Events      
T = Trace of Precipitation, MM = Missing Value Source: NWS Daily Summary

Daily Weather History Graph

Daily Weather History Graph

Search for Another Location

Airport or City:

Trip Planner

Search our weather history database for the weather conditions in past years. The results will help you decide how hot, cold, wet, or windy it might be!

Date:

Astronomy

Feb. 09, 2012 Rise Set
Actual Time 6:59 AM CST 5:19 PM CST
Civil Twilight 6:30 AM CST 5:48 PM CST
Nautical Twilight 5:57 AM CST 6:21 PM CST
Astronomical Twilight 5:24 AM CST 6:54 PM CST
Moon 7:51 PM CST (2/9) 7:32 AM CST (2/9)
Length of Visible Light 11h 18m
Length of Day
10h 20m
Waning Gibbous, 96% of the Moon is Illuminated
Feb 9
Waning Gibbous
Feb 14
Last Quarter
Feb 21
New
Feb 29
First Quarter
Mar 8
Full

Hourly Weather History & Observations

Time (CST) Temp. Windchill Dew Point Humidity Pressure Visibility Wind Dir Wind Speed Gust Speed Precip Events Conditions
12:15 AM 24.8 °F 16.1 °F 16.5 °F 71% 30.29 in 10.0 mi WSW 8.1 mph - N/A   Clear
12:35 AM 23.9 °F 15.0 °F 16.2 °F 72% 30.28 in 10.0 mi WSW 8.1 mph - N/A   Clear
12:55 AM 23.7 °F 14.0 °F 16.9 °F 75% 30.28 in 10.0 mi WSW 9.2 mph - N/A   Clear
1:15 AM 23.4 °F 13.5 °F 17.4 °F 78% 30.29 in 10.0 mi WSW 9.2 mph - N/A   Clear
1:35 AM 23.0 °F 13.9 °F 17.4 °F 79% 30.28 in 10.0 mi WSW 8.1 mph - N/A   Clear
1:55 AM 23.0 °F 12.4 °F 17.6 °F 80% 30.28 in 10.0 mi WSW 10.4 mph - N/A   Clear
2:15 AM 22.6 °F 12.6 °F 17.2 °F 80% 30.27 in 7.0 mi WSW 9.2 mph - N/A   Clear
2:35 AM 22.5 °F 12.4 °F 17.2 °F 80% 30.27 in 7.0 mi WSW 9.2 mph - N/A   Clear
2:55 AM 22.1 °F 12.0 °F 17.1 °F 81% 30.27 in 7.0 mi WSW 9.2 mph - N/A   Clear
3:15 AM 22.1 °F 11.3 °F 16.7 °F 80% 30.26 in 7.0 mi WSW 10.4 mph - N/A   Clear
3:35 AM 22.1 °F 12.0 °F 16.7 °F 80% 30.26 in 7.0 mi WSW 9.2 mph - N/A   Clear
3:55 AM 21.9 °F 9.8 °F 16.7 °F 80% 30.26 in 7.0 mi WSW 12.7 mph - N/A   Clear
4:15 AM 21.2 °F 10.9 °F 17.6 °F 86% 30.26 in 7.0 mi WSW 9.2 mph - N/A   Clear
4:35 AM 21.6 °F 10.6 °F 16.2 °F 80% 30.25 in 7.0 mi WSW 10.4 mph - N/A   Clear
4:55 AM 21.2 °F 10.9 °F 15.8 °F 80% 30.25 in 7.0 mi WSW 9.2 mph - N/A   Clear
5:15 AM 21.0 °F 10.6 °F 15.6 °F 80% 30.25 in 7.0 mi WSW 9.2 mph - N/A   Clear
5:35 AM 20.8 °F 10.4 °F 15.6 °F 80% 30.24 in 7.0 mi WSW 9.2 mph - N/A   Clear
5:55 AM 20.3 °F 11.5 °F 14.9 °F 80% 30.24 in 7.0 mi WSW 6.9 mph - N/A   Clear
6:15 AM 20.3 °F 10.6 °F 14.9 °F 80% 30.25 in 7.0 mi WSW 8.1 mph - N/A   Clear
6:35 AM 20.3 °F 10.6 °F 14.9 °F 80% 30.25 in 7.0 mi SW 8.1 mph - N/A   Clear
6:55 AM 20.1 °F 9.5 °F 14.7 °F 80% 30.25 in 5.0 mi WSW 9.2 mph - N/A   Haze
7:15 AM 20.1 °F 10.3 °F 14.5 °F 79% 30.26 in 5.0 mi WSW 8.1 mph - N/A   Haze
7:35 AM 20.3 °F 10.6 °F 14.7 °F 79% 30.25 in 5.0 mi WSW 8.1 mph - N/A   Haze
7:55 AM 21.2 °F 12.6 °F 15.6 °F 79% 30.25 in 5.0 mi WSW 6.9 mph - N/A   Haze
8:15 AM 22.6 °F 13.4 °F 16.5 °F 77% 30.25 in 7.0 mi WSW 8.1 mph - N/A   Clear
8:35 AM 23.9 °F 15.0 °F 17.2 °F 76% 30.25 in 7.0 mi WSW 8.1 mph - N/A   Clear
8:55 AM 25.5 °F 16.9 °F 17.6 °F 72% 30.24 in 10.0 mi WSW 8.1 mph - N/A   Clear
9:15 AM 27.3 °F 17.7 °F 18.3 °F 69% 30.24 in 10.0 mi WSW 10.4 mph - N/A   Clear
9:35 AM 28.4 °F 19.1 °F 18.7 °F 67% 30.24 in 10.0 mi WSW 10.4 mph - N/A   Clear
9:55 AM 29.5 °F 19.9 °F 19.2 °F 66% 30.24 in 10.0 mi WSW 11.5 mph - N/A   Clear
10:15 AM 30.2 °F 20.8 °F 17.6 °F 60% 30.24 in 10.0 mi WSW 11.5 mph - N/A   Clear
10:35 AM 31.8 °F 22.8 °F 17.2 °F 55% 30.24 in 10.0 mi WSW 11.5 mph - N/A   Clear
10:55 AM 31.8 °F 22.3 °F 17.1 °F 55% 30.24 in 10.0 mi WSW 12.7 mph - N/A   Clear
11:15 AM 32.4 °F 22.5 °F 17.8 °F 55% 30.23 in 10.0 mi WSW 13.8 mph 19.6 mph N/A   Clear
11:35 AM 32.2 °F 22.7 °F 17.1 °F 54% 30.22 in 10.0 mi SW 12.7 mph - N/A   Clear
11:55 AM 32.5 °F 22.7 °F 16.0 °F 51% 30.21 in 10.0 mi WSW 13.8 mph 18.4 mph N/A   Clear
12:15 PM 33.1 °F 23.0 °F 15.4 °F 48% 30.20 in 10.0 mi SW 15.0 mph - N/A   Clear
12:35 PM 33.6 °F 24.1 °F 16.0 °F 48% 30.19 in 10.0 mi SW 13.8 mph - N/A   Clear
12:55 PM 33.8 °F 24.3 °F 15.1 °F 46% 30.17 in 10.0 mi SW 13.8 mph - N/A   Clear
1:15 PM 34.2 °F 24.4 °F 15.8 °F 47% 30.16 in 10.0 mi SW 15.0 mph 18.4 mph N/A   Clear
1:35 PM 34.2 °F 23.6 °F 14.2 °F 44% 30.16 in 10.0 mi WSW 17.3 mph - N/A   Clear
1:55 PM 34.5 °F 24.8 °F 14.9 °F 45% 30.15 in 10.0 mi WSW 15.0 mph 21.9 mph N/A   Clear
2:15 PM 34.3 °F 25.0 °F 14.0 °F 43% 30.14 in 10.0 mi SW 13.8 mph 20.7 mph N/A   Clear
2:35 PM 34.5 °F 24.8 °F 13.1 °F 41% 30.14 in 10.0 mi SW 15.0 mph 19.6 mph N/A   Clear
2:55 PM 34.3 °F 23.2 °F 16.3 °F 48% 30.13 in 10.0 mi WSW 19.6 mph 23.0 mph N/A   Clear
3:15 PM 33.8 °F 24.8 °F 18.1 °F 53% 30.14 in 10.0 mi WSW 12.7 mph 21.9 mph N/A   Clear
3:35 PM 32.4 °F 22.5 °F 18.5 °F 57% 30.13 in 10.0 mi WSW 13.8 mph - N/A   Scattered Clouds
3:55 PM 31.8 °F 21.4 °F 19.4 °F 60% 30.13 in 10.0 mi West 15.0 mph 20.7 mph N/A   Scattered Clouds
4:15 PM 31.8 °F 21.0 °F 18.9 °F 59% 30.12 in 10.0 mi SW 16.1 mph - N/A   Scattered Clouds
4:35 PM 31.1 °F 21.4 °F 19.4 °F 62% 30.12 in 10.0 mi WSW 12.7 mph - N/A   Mostly Cloudy
4:55 PM 31.6 °F 21.6 °F 20.1 °F 62% 30.12 in 10.0 mi WSW 13.8 mph 18.4 mph N/A   Overcast
5:15 PM 31.1 °F 21.9 °F 18.1 °F 59% 30.11 in 10.0 mi SW 11.5 mph - N/A   Overcast
5:35 PM 31.6 °F 20.4 °F 18.3 °F 58% 30.11 in 10.0 mi SW 17.3 mph - N/A   Overcast
5:55 PM 31.8 °F 22.3 °F 18.7 °F 58% 30.12 in 10.0 mi SW 12.7 mph 18.4 mph N/A   Overcast
6:15 PM 31.8 °F 21.0 °F 17.6 °F 56% 30.11 in 10.0 mi WSW 16.1 mph 21.9 mph N/A   Overcast
6:35 PM 32.0 °F 23.6 °F 18.0 °F 56% 30.11 in 10.0 mi WSW 10.4 mph 19.6 mph N/A   Overcast
6:55 PM 32.0 °F 22.1 °F 18.9 °F 58% 30.11 in 10.0 mi WSW 13.8 mph 17.3 mph N/A   Overcast
7:15 PM 32.5 °F 23.2 °F 18.9 °F 57% 30.11 in 10.0 mi WSW 12.7 mph 18.4 mph N/A   Overcast
7:35 PM 32.5 °F 24.8 °F 19.2 °F 58% 30.11 in 10.0 mi WSW 9.2 mph 16.1 mph N/A   Overcast
7:55 PM 32.5 °F 23.2 °F 19.8 °F 59% 30.10 in 10.0 mi WSW 12.7 mph 17.3 mph N/A   Overcast
8:15 PM 32.5 °F 21.9 °F 21.2 °F 63% 30.10 in 10.0 mi WSW 16.1 mph 21.9 mph N/A   Overcast
8:35 PM 32.5 °F 23.7 °F 22.3 °F 66% 30.09 in 10.0 mi WSW 11.5 mph - N/A   Overcast
8:55 PM 32.5 °F 24.2 °F 23.4 °F 69% 30.09 in 10.0 mi SW 10.4 mph - N/A   Overcast
9:15 PM 32.0 °F 22.5 °F 23.0 °F 69% 30.08 in 10.0 mi SW 12.7 mph - N/A   Overcast
9:35 PM 32.0 °F 23.6 °F 23.2 °F 70% 30.08 in 10.0 mi SW 10.4 mph - N/A   Overcast
9:55 PM 32.0 °F 22.1 °F 23.7 °F 71% 30.08 in 10.0 mi SW 13.8 mph 17.3 mph N/A   Overcast
10:15 PM 32.0 °F 23.0 °F 23.5 °F 71% 30.08 in 10.0 mi SW 11.5 mph 19.6 mph N/A   Overcast
10:35 PM 31.8 °F 22.3 °F 23.5 °F 71% 30.07 in 10.0 mi SW 12.7 mph - N/A   Overcast
10:55 PM 32.0 °F 21.6 °F 23.9 °F 72% 30.07 in 10.0 mi SW 15.0 mph 21.9 mph N/A   Overcast
11:15 PM 31.8 °F 21.8 °F 23.9 °F 73% 30.07 in 10.0 mi SW 13.8 mph - N/A   Overcast
11:35 PM 31.8 °F 23.3 °F 23.9 °F 73% 30.06 in 10.0 mi SW 10.4 mph - N/A   Overcast
11:55 PM 31.8 °F 22.8 °F 23.9 °F 73% 30.06 in 10.0 mi SW 11.5 mph - N/A   Overcast